Date,TemperatureHighF,TemperatureAvgF,TemperatureLowF,DewpointHighF,DewpointAvgF,DewpointLowF,HumidityHigh,HumidityAvg,HumidityLow,PressureMaxIn,PressureMinIn,WindSpeedMaxMPH,WindSpeedAvgMPH,GustSpeedMaxMPH,PrecipitationSumIn
2013-1-1,50.4,45.9,41.8,44.7,36.0,24.6,81,69,47,30.12,29.96,14,2,14,0.29
2013-1-2,49.5,45.1,39.8,43.8,37.8,32.9,83,76,61,30.21,29.93,8,1,8,0.21
2013-1-3,45.9,39.8,29.0,34.4,31.9,22.4,80,73,58,30.28,30.15,8,1,8,0.00
2013-1-4,49.9,36.9,25.2,26.1,21.2,17.4,83,56,32,30.33,30.21,16,3,16,0.00
2013-1-5,48.6,36.8,26.5,30.6,22.0,17.1,71,56,37,30.41,30.26,9,1,9,0.00
2013-1-6,51.3,42.0,35.6,35.8,31.6,25.1,80,67,54,30.27,30.07,9,2,9,0.00
2013-1-7,52.7,39.4,29.3,31.7,26.9,21.2,77,62,42,30.45,30.20,8,2,8,0.00
2013-1-8,55.1,40.7,27.4,38.0,30.4,20.7,81,68,44,30.48,30.38,4,1,6,0.00
2013-1-9,67.7,50.5,35.1,47.5,39.2,28.3,80,66,47,30.47,30.37,12,1,12,0.00
2013-1-10,51.1,50.4,49.3,42.9,42.0,41.0,75,73,71,30.45,30.43,2,0,2,0.00
2013-1-12,73.1,64.2,52.9,60.6,55.5,47.6,83,74,64,30.19,30.12,7,1,7,0.00
2013-1-13,75.2,62.3,52.9,58.5,52.7,47.2,83,72,53,30.17,30.07,20,2,20,0.00
2013-1-14,71.3,64.2,58.7,59.8,55.3,50.8,77,73,65,30.17,30.10,13,1,13,0.00
2013-1-15,63.7,48.0,44.8,56.0,41.5,38.3,82,78,73,30.24,30.07,12,2,12,0.01
2013-1-16,48.8,45.5,43.2,44.1,40.5,37.7,85,83,81,30.09,29.99,8,1,8,0.14
2013-1-17,49.9,46.0,32.9,45.6,41.3,28.1,86,84,80,30.17,29.88,15,2,15,0.96
2013-1-18,45.0,35.0,25.6,30.4,25.7,19.5,87,70,43,30.54,30.15,15,2,15,0.06
2013-1-19,53.1,36.3,22.7,31.2,24.5,16.8,85,65,36,30.51,30.17,13,1,13,0.00
2013-1-20,64.4,48.3,38.2,33.8,29.1,24.5,67,49,28,30.17,30.00,18,4,18,0.00
2013-1-21,59.2,43.6,27.5,32.1,24.5,15.0,78,50,30,30.10,29.89,19,3,19,0.00
2013-1-22,41.2,32.4,24.8,16.6,5.4,-3.0,48,33,18,30.30,29.98,17,4,22,0.00
2013-1-23,39.2,28.5,16.9,19.4,8.9,2.0,69,45,28,30.39,30.06,15,1,15,0.00
2013-1-24,38.9,31.0,23.9,21.1,10.2,-1.2,66,43,24,30.52,29.97,18,3,18,0.00
2013-1-25,29.2,24.4,21.6,23.0,11.7,2.9,80,59,40,30.54,30.14,8,1,8,0.00
2013-1-26,41.9,31.3,25.6,31.2,24.1,18.8,82,75,62,30.42,30.11,5,0,5,0.13
2013-1-27,41.8,32.1,22.3,30.2,23.5,18.0,88,72,49,30.61,30.41,6,1,6,0.04
2013-1-28,50.9,41.6,31.5,43.9,32.3,23.2,81,70,58,30.52,30.25,14,2,14,0.01
2013-1-29,72.9,57.2,43.6,54.4,46.9,37.6,81,69,51,30.25,30.09,18,3,18,0.00
2013-1-30,72.9,66.3,58.3,60.5,57.0,50.4,81,72,62,30.09,29.43,25,7,25,0.28
2013-1-31,61.0,45.9,33.1,52.8,26.7,16.8,78,49,29,30.04,29.51,29,9,29,0.10
2013-2-1,38.5,33.6,23.6,24.1,10.2,0.0,60,40,21,30.39,29.91,30,7,30,0.00
2013-2-2,44.3,31.7,16.9,32.2,12.3,4.6,71,47,27,30.41,30.04,20,2,20,0.00
2013-2-3,50.2,41.2,33.7,32.0,25.5,19.0,78,56,36,30.04,29.87,20,3,20,0.00
2013-2-4,48.1,36.9,25.0,24.0,19.8,15.7,78,51,33,30.16,30.01,12,2,12,0.00
2013-2-5,61.7,46.2,36.0,32.9,28.3,23.4,66,51,32,30.03,29.89,19,4,19,0.00
2013-2-6,63.7,45.6,28.8,32.3,24.9,19.5,80,49,19,30.29,29.99,14,2,14,0.00
2013-2-7,46.4,41.1,36.2,37.2,31.7,22.0,82,70,49,30.34,29.99,7,2,7,0.28
2013-2-8,55.1,44.8,38.2,42.2,35.7,24.6,87,72,49,30.08,29.84,20,5,20,0.39
2013-2-9,53.3,39.0,27.7,25.5,20.2,14.8,79,50,23,30.37,30.07,15,3,15,0.00
2013-2-10,55.8,38.0,23.4,34.7,22.0,15.7,79,55,28,30.50,30.21,13,1,13,0.07
2013-2-11,62.3,55.1,41.4,55.0,48.3,33.0,87,78,71,30.22,29.94,22,4,22,0.09
2013-2-12,61.9,52.9,44.5,49.5,33.1,23.1,82,50,24,30.11,29.92,15,3,15,0.00
2013-2-13,47.9,45.3,41.6,41.7,38.1,31.6,81,76,54,29.98,29.64,15,2,15,0.04
2013-2-14,41.6,37.9,35.1,32.4,30.2,27.7,76,73,70,29.92,29.86,7,2,7,0.00
2013-2-15,44.5,41.2,38.0,31.5,28.0,26.4,67,59,53,29.98,29.96,9,2,9,0.00
2013-2-16,44.3,35.8,29.5,31.3,27.8,19.9,82,73,60,29.98,29.85,11,3,11,0.19
2013-2-17,37.4,28.6,22.0,21.2,11.1,4.8,78,50,26,30.30,29.94,26,5,26,0.02
2013-2-18,52.0,33.6,15.8,22.1,15.6,8.6,80,51,27,30.42,30.26,14,1,14,0.00
2013-2-19,49.7,40.3,30.1,44.8,32.3,19.8,84,73,55,30.27,29.88,18,3,18,0.22
2013-2-20,53.1,40.1,29.3,34.9,18.0,11.8,81,43,21,30.15,29.98,20,4,20,0.00
2013-2-21,55.8,39.6,23.9,22.7,17.0,11.8,68,43,21,30.26,30.13,11,2,11,0.00
2013-2-22,42.5,36.4,32.8,31.3,28.1,20.6,82,73,42,30.36,30.13,7,1,7,0.48
2013-2-23,43.6,39.0,35.1,39.4,34.4,30.0,87,84,80,30.13,29.84,7,1,7,0.78
2013-2-24,62.5,48.9,40.1,41.7,34.4,22.9,87,61,27,30.05,29.81,14,3,14,0.11
2013-2-25,42.3,37.1,32.8,25.3,22.1,18.4,66,55,42,30.24,30.05,6,1,6,0.00
2013-2-26,55.6,43.9,34.0,52.6,37.7,22.6,90,79,57,30.15,29.57,11,2,11,0.84
2013-2-27,45.0,43.7,43.0,40.2,38.9,37.5,85,83,81,29.68,29.65,17,3,17,0.00
2013-2-28,39.8,37.6,35.5,23.1,22.5,22.2,59,54,50,29.87,29.86,9,2,9,0.00
2013-3-1,47.7,38.4,27.4,26.5,23.6,18.9,75,56,40,29.93,29.86,9,3,9,0.00
2013-3-2,47.2,37.4,27.9,25.7,22.1,16.0,79,55,38,29.94,29.83,9,2,9,0.00
2013-3-3,46.1,34.6,27.0,19.1,15.8,13.3,61,47,32,30.00,29.87,13,4,13,0.00
2013-3-4,50.0,35.4,23.2,22.1,13.6,11.4,61,43,22,30.13,29.99,14,4,14,0.00
2013-3-5,45.9,40.6,32.4,39.0,29.8,17.1,81,66,47,30.09,29.59,6,1,6,0.35
2013-3-6,47.0,41.7,35.6,42.4,28.6,21.9,85,61,42,30.05,29.53,24,9,24,0.01
2013-3-7,52.6,40.9,32.0,27.5,24.8,21.4,69,54,38,30.25,30.05,12,6,12,0.00
2013-3-8,55.8,42.4,32.0,23.8,21.7,20.5,63,46,27,30.30,30.16,16,6,16,0.00
2013-3-9,64.1,45.4,30.6,31.7,24.9,20.5,67,47,25,30.35,30.25,6,2,6,0.00
2013-3-10,68.6,48.4,29.9,34.3,26.4,21.6,74,47,22,30.34,30.22,5,1,5,0.00
2013-3-11,69.8,52.8,35.5,48.7,36.6,21.0,72,55,37,30.26,29.96,12,2,12,0.00
2013-3-12,70.7,61.6,50.9,57.1,48.2,28.5,85,64,37,29.96,29.78,17,6,17,0.82
2013-3-13,58.9,46.3,33.7,29.1,23.6,16.3,71,43,24,30.15,29.97,20,6,20,0.00
2013-3-14,52.9,41.7,31.9,18.9,15.6,13.2,49,36,24,30.18,30.13,10,5,10,0.00
2013-3-15,63.0,44.6,25.0,31.5,23.8,15.1,68,47,28,30.20,29.92,17,3,17,0.00
2013-3-16,79.7,62.7,45.7,46.3,39.9,29.3,58,45,30,29.92,29.69,19,5,19,0.00
2013-3-17,64.4,54.0,42.8,47.6,40.5,33.8,76,61,47,30.17,29.86,9,2,9,0.00
2013-3-18,43.6,40.6,38.3,36.8,34.4,32.4,83,78,70,30.22,29.90,13,2,13,0.52
2013-3-19,66.1,51.4,40.0,41.3,31.1,14.8,86,54,19,30.03,29.84,13,5,13,0.00
2013-3-20,56.5,47.0,36.7,22.2,14.3,8.2,51,28,20,30.14,29.80,13,3,13,0.00
2013-3-21,46.8,38.9,28.8,25.2,15.1,7.4,64,39,24,29.99,29.75,19,6,19,0.00
2013-3-22,51.7,36.4,22.3,20.8,11.9,7.8,60,38,21,30.10,29.98,15,4,15,0.00
2013-3-23,54.0,43.7,35.1,26.9,23.0,19.6,64,45,31,30.07,29.93,9,1,9,0.00
2013-3-24,35.8,34.2,32.4,25.6,24.1,23.1,68,66,66,29.95,29.90,1,0,1,0.00
2013-3-25,47.9,42.7,36.0,33.1,23.6,19.5,79,48,35,29.84,29.61,20,7,20,0.00
2013-3-26,48.6,40.2,29.9,27.1,22.8,20.1,68,50,38,30.12,29.84,11,5,11,0.00
2013-3-27,52.0,41.4,29.9,22.6,20.4,17.5,68,45,28,30.24,30.12,18,6,18,0.00
2013-3-28,56.5,42.0,29.3,23.0,20.4,18.0,64,44,25,30.30,30.17,10,5,10,0.00
2013-3-29,61.0,45.4,27.4,30.6,22.3,17.8,73,44,23,30.34,30.20,9,2,9,0.00
2013-3-30,67.7,52.9,38.9,38.3,33.0,25.7,67,48,33,30.25,30.10,6,1,6,0.00
2013-3-31,69.8,56.9,47.2,55.9,46.3,37.0,82,68,52,30.12,29.83,13,3,13,0.58
2013-4-1,72.4,60.9,53.5,49.7,42.7,35.7,84,56,28,29.96,29.84,12,4,12,0.03
2013-4-2,61.4,49.2,34.9,35.0,26.6,23.1,70,44,24,30.17,29.98,15,3,15,0.00
2013-4-3,61.7,49.5,40.9,27.8,21.5,16.8,56,35,21,30.31,30.15,8,2,8,0.00
2013-4-4,46.4,41.6,38.2,34.8,29.5,21.5,84,63,45,30.36,29.94,6,2,6,0.82
2013-4-5,63.0,48.3,37.6,45.6,39.1,33.8,87,72,52,30.03,29.90,8,3,8,0.01
2013-4-6,67.0,52.5,40.0,36.6,31.6,26.5,79,49,25,30.28,30.03,7,2,7,0.00
2013-4-7,74.3,56.5,36.0,41.7,36.1,27.9,73,49,31,30.30,30.13,15,3,15,0.00
2013-4-8,79.9,66.6,52.4,52.6,47.8,40.5,76,53,35,30.20,30.08,18,4,18,0.00
2013-4-9,87.5,72.7,58.3,56.3,52.5,48.8,75,52,32,30.21,30.09,13,4,13,0.00
2013-4-10,87.5,71.0,61.9,58.1,54.4,50.9,70,57,36,30.13,29.99,11,3,11,0.00
2013-4-11,73.6,68.9,65.9,55.4,53.6,51.8,61,58,53,30.00,29.98,4,2,4,0.00
2013-4-12,84.4,77.9,67.0,64.2,54.4,43.7,58,44,40,29.79,29.64,22,4,22,0.00
2013-4-13,78.3,64.6,51.1,43.8,39.1,35.4,59,41,24,30.02,29.79,7,2,7,0.00
2013-4-14,71.3,65.5,54.4,47.5,44.6,38.9,57,47,40,30.07,30.02,2,1,2,0.00
2013-4-15,73.4,65.5,59.0,55.0,52.2,47.0,76,63,51,30.22,30.03,4,0,4,0.01
2013-4-16,79.6,67.7,60.5,58.2,54.3,50.7,76,63,45,30.32,30.22,4,1,4,0.00
2013-4-17,83.2,68.4,56.9,60.9,55.3,48.2,78,64,47,30.26,30.13,9,2,9,0.00
2013-4-18,72.2,70.0,67.7,57.2,56.4,55.8,66,62,58,30.09,30.06,3,1,3,0.00
2013-4-19,84.8,73.4,65.9,63.5,60.8,55.9,80,66,47,30.07,29.75,12,3,12,0.01
2013-4-20,64.4,56.5,45.7,38.4,35.8,31.6,72,48,31,30.29,30.13,4,1,6,0.00
2013-4-21,65.0,51.6,40.5,40.0,37.1,33.7,77,59,39,30.49,30.29,4,1,4,0.00
2013-4-22,63.4,49.2,40.0,38.4,33.2,28.7,69,55,36,30.48,30.27,6,2,6,0.01
2013-4-24,65.2,65.2,65.2,50.9,50.9,50.9,60,60,60,30.04,30.03,2,0,2,0.00
2013-4-25,72.4,63.2,50.4,51.7,44.9,39.8,71,53,37,30.28,30.03,4,1,4,0.00
2013-4-26,73.8,58.2,45.0,43.3,39.3,35.0,76,53,26,30.44,30.29,3,0,3,0.00
2013-4-27,73.8,61.4,52.2,49.1,43.9,40.8,70,54,34,30.40,30.28,4,0,4,0.00
2013-4-28,59.9,57.4,54.4,50.6,47.8,44.6,81,71,60,30.29,30.12,1,0,1,0.67
2013-4-29,69.8,62.1,56.2,60.5,55.5,50.4,83,79,71,30.13,29.98,3,0,3,0.63
2013-4-30,66.4,61.8,56.5,57.1,55.0,50.0,83,78,71,30.19,30.02,2,0,2,0.00
2013-5-1,61.2,58.6,56.0,54.2,52.5,49.9,83,80,77,30.32,30.18,3,1,3,0.00
2013-5-2,62.8,59.2,55.8,54.4,52.4,49.3,82,78,73,30.33,30.27,5,1,5,0.00
2013-5-3,67.7,59.1,50.4,53.5,48.5,41.6,81,68,57,30.27,30.17,6,1,6,0.00
2013-5-4,65.9,56.9,50.8,49.4,45.4,41.6,74,66,53,30.22,30.08,4,2,4,0.00
2013-5-5,58.9,55.7,51.5,51.8,47.3,42.9,78,74,68,30.10,29.98,5,2,5,0.00
2013-5-6,60.8,58.0,56.7,56.3,52.5,50.9,85,82,77,30.00,29.90,3,1,3,0.06
2013-5-7,69.5,60.9,52.7,53.6,49.5,46.7,84,67,46,29.97,29.89,7,1,7,0.00
2013-5-8,71.1,61.9,53.8,55.3,51.9,47.2,81,70,54,30.02,29.95,7,1,7,0.06
2013-5-9,79.6,66.8,53.1,56.8,53.4,47.3,83,64,44,30.09,30.00,3,1,3,0.00
2013-5-10,87.5,72.9,57.1,61.3,55.9,49.3,77,57,35,30.09,29.97,6,0,6,0.00
2013-5-11,84.1,74.2,67.5,62.9,58.7,53.0,67,59,43,29.98,29.82,9,2,9,0.00
2013-5-12,74.5,67.5,55.8,56.9,44.6,35.6,74,45,32,30.05,29.83,8,2,8,0.01
2013-5-13,66.6,56.0,45.4,39.5,35.2,31.2,67,48,29,30.20,30.05,7,1,7,0.00
2013-5-14,70.6,57.9,40.7,41.0,37.1,32.1,71,48,31,30.28,30.10,4,1,4,0.00
2013-5-15,88.6,71.2,52.9,60.1,50.9,39.0,66,50,38,30.10,29.93,6,1,6,0.00
2013-5-16,78.1,75.5,71.6,58.1,57.5,56.9,61,54,50,29.96,29.92,4,1,4,0.00
2013-5-17,89.3,81.9,71.3,63.5,61.1,59.4,67,50,40,30.10,30.04,5,1,5,0.00
2013-5-18,79.7,71.0,63.7,65.4,60.4,54.9,82,69,60,30.17,30.09,4,0,4,0.27
2013-5-19,80.3,70.8,65.9,67.1,62.3,59.0,80,75,62,30.17,30.08,3,0,3,0.78
2013-5-20,76.0,70.8,67.1,67.5,63.4,60.5,82,77,75,30.14,30.05,1,0,1,0.66
2013-5-21,85.0,74.7,68.0,70.0,65.1,61.4,81,72,60,30.08,29.98,8,1,8,0.00
2013-5-22,84.8,75.1,69.1,66.8,63.7,61.2,79,68,53,30.06,29.94,4,1,4,0.00
2013-5-23,81.9,74.9,68.6,66.0,63.7,58.9,78,68,56,29.99,29.85,4,1,4,0.03
2013-5-24,71.1,65.4,55.3,59.1,49.3,36.9,79,58,34,30.21,29.84,8,2,8,0.00
2013-5-25,72.7,59.3,43.6,45.1,39.4,35.2,74,50,30,30.29,30.16,5,1,5,0.00
2013-5-26,72.9,61.3,51.5,51.0,44.2,38.1,65,54,39,30.30,30.20,3,1,3,0.00
2013-5-27,81.5,65.6,50.0,55.6,49.2,42.0,75,58,35,30.30,30.18,7,0,7,0.00
2013-5-28,85.0,73.1,61.2,63.2,57.8,50.1,74,60,47,30.28,30.17,5,1,5,0.00
2013-5-29,86.0,75.2,63.4,63.7,59.6,54.9,75,59,45,30.27,30.18,4,1,4,0.00
2013-5-30,86.9,75.5,62.8,62.6,59.9,54.7,75,60,39,30.30,30.20,4,1,4,0.00
2013-5-31,88.6,77.5,66.6,65.3,62.3,58.1,76,61,43,30.26,30.13,5,0,5,0.00
2013-6-1,88.6,78.4,67.7,65.4,62.9,59.1,75,60,43,30.17,30.05,6,1,6,0.00
2013-6-2,87.8,77.8,68.0,66.5,62.9,58.6,75,61,46,30.09,29.93,7,1,7,0.00
2013-6-3,81.2,74.3,68.0,69.3,65.4,61.0,80,74,63,29.99,29.86,6,1,6,0.77
2013-6-4,79.6,71.2,65.5,65.0,61.9,59.4,82,73,55,30.12,29.96,4,1,4,0.00
2013-6-5,78.5,72.1,65.2,61.8,59.8,57.8,77,66,53,30.16,30.04,4,0,4,0.00
2013-6-6,74.3,71.0,66.1,68.1,63.0,56.8,82,76,62,30.06,29.85,2,0,2,0.44
2013-6-7,73.6,71.0,68.8,66.8,65.1,63.2,88,82,77,29.88,29.55,7,1,7,2.01
2013-6-8,82.8,73.5,67.7,68.0,64.8,61.7,84,75,59,30.12,29.84,4,0,4,0.10
2013-6-9,86.9,76.4,66.6,71.9,66.5,60.3,80,72,61,30.19,30.08,4,0,4,0.00
2013-6-10,84.6,76.7,72.7,71.4,67.8,65.4,82,74,60,30.12,29.93,5,1,5,0.58
2013-6-11,85.0,76.5,70.2,65.6,63.4,61.4,77,65,46,29.99,29.93,5,1,5,0.00
2013-6-12,85.0,79.2,70.0,71.3,67.3,61.3,74,67,63,29.99,29.89,3,1,3,0.00
2013-6-13,82.8,79.6,77.4,69.8,68.6,67.6,73,69,65,29.89,29.87,1,0,1,0.00
2013-6-14,80.5,74.9,64.4,61.5,58.3,55.3,73,57,47,30.04,29.94,4,0,4,0.00
2013-6-15,84.4,71.5,58.3,63.8,57.5,51.8,79,63,43,30.15,30.04,3,0,3,0.00
2013-6-16,87.3,76.9,64.3,66.6,61.0,52.5,68,59,48,30.16,30.03,10,1,10,0.00
2013-6-17,85.0,76.8,70.2,69.5,64.8,59.5,76,67,57,30.07,29.96,3,1,3,0.03
2013-6-18,74.2,73.0,71.8,66.2,64.8,63.5,76,76,75,30.00,29.94,0,0,0,0.02
2013-6-19,74.7,72.2,70.6,64.4,63.0,61.5,75,73,70,30.14,30.10,1,0,1,0.00
2013-6-20,83.2,73.2,65.7,64.0,61.1,56.8,80,67,48,30.26,30.14,5,0,5,0.00
2013-6-21,82.8,71.7,59.2,62.8,56.5,50.6,74,60,41,30.28,30.20,7,0,7,0.00
2013-6-22,79.6,73.7,68.0,68.0,64.2,58.3,79,72,66,30.24,30.13,4,0,4,0.00
2013-6-23,85.5,76.3,69.5,71.1,66.7,62.3,81,72,58,30.24,30.15,5,0,5,0.00
2013-6-24,85.5,77.5,71.3,72.8,67.5,62.9,81,71,63,30.24,30.11,7,1,7,0.10
2013-6-25,90.0,76.9,69.3,72.0,66.1,61.8,80,70,53,30.16,30.03,9,1,10,0.00
2013-6-26,90.0,77.4,70.0,72.4,66.8,62.2,79,70,54,30.07,29.92,9,1,9,0.22
2013-6-27,89.3,77.7,68.0,73.0,67.3,60.9,84,71,56,29.97,29.75,9,1,9,0.00
2013-6-28,91.6,79.6,71.3,71.5,68.0,64.3,83,69,49,29.78,29.62,11,1,11,1.11
2013-6-29,86.8,75.9,69.3,72.5,67.1,62.9,82,75,58,29.75,29.64,5,0,5,0.78
2013-6-30,85.0,74.5,69.8,73.3,67.4,62.6,85,79,66,29.89,29.73,7,1,7,3.25
2013-7-1,82.1,74.2,69.5,70.8,67.1,63.7,84,79,69,30.02,29.87,5,0,5,0.95
2013-7-2,76.0,74.5,73.4,69.4,67.8,66.3,82,79,76,30.21,30.02,2,0,2,0.24
2013-7-3,83.2,75.4,73.1,73.2,68.5,66.4,83,79,71,30.27,30.17,2,0,3,1.10
2013-7-4,86.8,80.2,74.0,74.4,70.5,66.9,83,73,60,30.30,30.20,5,1,5,0.00
2013-7-5,87.8,80.4,73.3,73.1,70.0,66.1,81,71,59,30.30,30.19,4,0,4,0.00
2013-7-6,87.1,79.6,73.6,72.7,68.9,64.9,79,70,57,30.28,30.15,2,0,2,0.00
2013-7-7,88.2,80.7,71.1,73.5,69.2,62.7,78,68,59,30.21,30.09,4,1,4,0.00
2013-7-8,87.8,79.6,74.2,71.7,68.5,65.9,78,69,56,30.20,30.12,4,0,4,0.01
2013-7-9,86.4,78.4,73.8,73.7,68.7,65.5,80,72,60,30.19,30.09,7,1,7,0.00
2013-7-10,88.4,79.3,73.4,72.8,69.1,65.8,80,71,59,30.13,29.98,5,1,5,0.00
2013-7-11,77.0,75.6,74.0,70.0,68.1,66.5,80,77,71,30.00,29.91,1,0,1,0.66
2013-7-12,77.0,74.3,72.2,68.9,67.1,64.5,81,78,75,30.05,29.90,2,0,2,0.05
2013-7-13,77.6,74.2,71.3,70.4,67.5,64.2,81,79,77,30.19,30.04,2,0,2,0.17
2013-7-14,86.4,77.7,72.2,73.2,69.4,65.5,82,76,61,30.32,30.19,4,1,4,0.08
2013-7-15,88.2,80.0,70.7,72.7,69.0,63.6,80,70,57,30.35,30.28,2,0,2,0.00
2013-7-16,91.6,80.8,70.7,73.1,69.0,63.1,80,68,52,30.31,30.21,2,0,2,0.13
2013-7-17,88.2,80.4,74.9,75.6,71.7,68.7,82,75,63,30.25,30.14,7,0,7,0.00
2013-7-18,93.1,82.1,74.3,76.0,71.8,68.2,82,72,54,30.17,30.07,5,0,5,0.06
2013-7-19,91.1,83.7,76.9,73.7,71.0,68.2,77,66,54,30.13,30.01,5,1,5,0.00
2013-7-20,88.7,81.7,76.3,73.3,70.3,66.9,75,69,58,30.06,29.95,13,1,13,0.19
2013-7-21,89.5,79.1,74.5,74.2,69.2,66.2,79,72,57,30.03,29.93,5,1,5,0.61
2013-7-22,87.5,79.7,73.3,72.3,69.1,66.0,79,71,57,29.98,29.86,4,0,4,0.00
2013-7-23,88.4,81.8,74.9,72.2,69.3,66.9,78,66,55,29.88,29.76,5,1,5,0.00
2013-7-24,92.0,80.3,72.5,72.3,68.2,64.4,77,67,51,29.88,29.76,4,1,4,0.51
2013-7-25,79.7,74.5,69.1,67.8,65.4,61.9,81,74,66,30.05,29.84,3,0,3,0.00
2013-7-26,83.7,74.0,64.8,66.7,63.0,58.2,80,69,53,30.14,30.04,2,0,2,0.00
2013-7-27,84.6,74.5,68.8,69.9,65.1,61.3,80,73,56,30.08,29.97,3,0,3,0.55
2013-7-28,86.8,77.3,68.9,71.3,67.4,62.6,84,72,56,30.04,29.95,4,0,4,0.01
2013-7-29,84.6,76.9,70.2,69.1,65.5,62.6,79,68,53,30.17,30.02,4,1,4,0.02
2013-7-30,85.5,74.9,63.0,68.4,63.0,55.6,79,67,50,30.24,30.16,3,0,3,0.00
2013-7-31,82.6,77.4,71.5,70.8,67.7,63.5,77,72,65,30.17,30.03,4,0,4,0.02
2013-8-1,82.8,76.0,72.0,70.8,67.6,64.2,80,75,67,30.04,29.90,2,0,2,0.26
2013-8-2,86.8,77.7,68.8,71.3,67.4,62.3,80,71,56,30.05,29.93,3,0,3,0.00
2013-8-3,90.0,80.4,74.7,74.2,69.8,67.1,78,71,53,30.04,29.93,4,1,4,0.00
2013-8-4,85.3,78.3,70.7,68.9,65.5,60.8,80,65,53,30.06,29.92,4,0,4,0.00
2013-8-5,83.0,74.0,65.2,66.0,62.5,57.8,80,68,51,30.12,30.02,4,0,4,0.00
2013-8-6,82.3,74.3,67.0,67.8,63.4,59.7,81,69,54,30.10,30.02,9,1,9,0.25
2013-8-7,85.5,77.1,70.2,70.2,66.1,61.8,79,69,54,30.13,30.05,5,0,5,0.00
2013-8-8,89.6,80.1,72.0,72.8,68.4,63.8,80,68,51,30.10,30.02,5,0,5,0.00
2013-8-9,91.4,82.1,75.2,73.6,69.9,66.8,77,67,54,30.09,30.01,13,1,13,0.00
2013-8-10,94.7,81.8,75.8,75.8,70.1,66.6,77,68,49,30.12,30.03,9,1,9,0.05
2013-8-11,93.6,88.0,79.9,74.3,72.5,69.7,74,61,50,30.12,30.03,6,1,6,0.00
2013-8-12,92.9,82.8,74.9,72.0,69.9,67.0,78,66,46,30.07,29.96,7,0,8,0.00
2013-8-13,88.6,78.8,72.2,74.5,69.4,63.8,79,73,62,30.01,29.81,17,1,17,0.62
2013-8-14,76.7,73.0,66.2,68.5,64.0,55.9,80,73,67,30.12,29.85,5,1,5,0.00
2013-8-15,66.4,64.0,61.9,55.9,54.6,53.2,74,71,69,30.12,30.10,0,0,0,0.00
2013-8-17,71.3,70.5,69.8,65.8,64.8,63.9,84,82,81,30.17,30.13,3,0,3,0.04
2013-8-18,82.3,73.9,68.6,69.2,65.4,61.8,84,75,61,30.23,30.13,6,0,6,0.00
2013-8-19,74.2,70.7,67.5,67.3,63.7,60.5,82,79,73,30.22,30.12,3,0,3,0.23
2013-8-20,82.8,75.6,69.8,70.7,67.2,63.7,82,76,65,30.21,30.13,1,0,1,0.00
2013-8-21,86.0,76.7,72.7,73.0,68.3,65.1,80,75,63,30.25,30.13,4,0,4,0.06
2013-8-22,88.7,79.0,71.3,72.4,68.4,64.8,81,71,55,30.17,30.02,4,1,4,0.00
2013-8-23,76.9,74.5,72.7,68.3,66.5,64.4,78,76,74,30.05,29.99,2,1,2,0.00
2013-8-24,83.3,76.0,67.0,64.9,60.2,56.4,75,59,48,30.33,30.23,4,1,4,0.00
2013-8-25,79.2,69.3,60.3,62.1,56.9,52.7,79,66,50,30.41,30.31,3,0,3,0.00
2013-8-26,82.8,68.0,55.6,60.8,54.8,48.5,79,64,43,30.34,30.15,2,0,2,0.00
2013-8-27,87.8,73.7,62.5,69.7,61.9,53.6,76,67,51,30.16,30.00,4,0,4,0.00
2013-8-28,84.1,78.3,70.2,72.4,68.5,62.2,78,72,67,30.02,29.92,5,0,5,0.00
2013-8-29,88.2,80.4,75.6,71.7,68.9,66.3,76,68,58,30.04,29.88,3,1,3,0.00
2013-8-30,87.8,77.9,70.0,67.4,64.3,61.3,77,64,46,30.09,29.97,3,0,3,0.00
2013-8-31,89.3,78.1,68.2,69.8,65.4,59.7,80,66,50,30.01,29.90,7,1,7,0.00
2013-9-1,90.9,79.7,72.0,75.4,68.5,64.7,79,69,52,29.94,29.80,3,1,3,0.61
2013-9-2,87.5,78.4,71.6,72.7,68.4,64.0,79,72,58,29.93,29.84,5,0,5,0.01
2013-9-3,89.1,80.2,74.3,72.3,69.2,66.7,78,70,54,29.97,29.83,6,0,6,0.00
2013-9-4,86.2,76.5,66.6,69.7,65.6,58.8,77,70,56,30.11,29.97,2,0,2,0.00
2013-9-5,89.1,75.9,66.6,66.3,62.0,57.2,81,64,40,30.13,30.06,4,0,4,0.00
2013-9-6,83.7,72.5,64.6,62.7,58.5,54.3,75,62,46,30.20,30.11,3,1,3,0.00
2013-9-7,85.1,71.3,58.9,63.7,58.4,51.3,77,65,45,30.16,30.01,3,0,3,0.00
2013-9-8,89.3,75.1,63.9,63.7,60.2,56.3,77,62,38,30.02,29.94,4,0,4,0.00
2013-9-9,89.5,75.8,65.9,67.8,63.3,57.9,77,66,46,30.18,30.02,2,0,2,0.00
2013-9-10,92.2,79.3,68.0,68.4,65.0,59.9,77,63,44,30.26,30.17,4,0,4,0.00
2013-9-11,88.0,79.6,72.4,69.4,65.5,62.0,72,62,50,30.23,30.10,3,0,3,0.00
2013-9-12,91.3,80.4,71.3,69.2,65.3,61.0,71,61,47,30.11,29.85,4,1,4,0.00
2013-9-14,78.8,72.3,60.3,55.3,51.6,48.5,68,49,37,30.16,30.05,6,0,6,0.00
2013-9-15,81.4,63.2,55.1,59.2,51.5,46.6,74,66,45,30.26,30.14,4,0,4,0.00
2013-9-16,83.5,74.2,66.2,68.0,61.6,56.2,81,66,49,30.20,30.07,3,0,3,0.37
2013-9-17,77.8,68.9,62.3,59.7,53.1,49.2,72,58,42,30.33,30.21,4,1,4,0.00
2013-9-18,74.2,62.7,51.7,51.8,48.2,43.7,75,60,42,30.33,30.19,7,1,7,0.00
2013-9-19,76.9,64.3,53.5,59.2,52.9,45.4,76,67,51,30.22,30.10,5,0,5,0.00
2013-9-20,69.1,67.1,65.0,62.0,59.5,56.5,81,77,70,30.11,29.99,2,0,2,0.19
2013-9-21,77.9,70.4,64.8,67.7,63.1,59.2,82,78,70,29.99,29.76,2,0,2,0.11
2013-9-22,76.0,66.8,60.8,63.1,59.1,52.9,85,77,60,29.92,29.73,3,1,3,0.63
2013-9-23,70.6,61.4,54.5,55.7,51.8,47.8,79,71,57,30.10,29.92,0,0,0,0.00
2013-9-24,73.8,62.8,53.3,59.5,53.1,46.4,80,71,59,30.12,29.97,1,0,1,0.00
2013-9-25,70.0,63.1,52.4,58.8,54.9,46.1,82,75,66,29.99,29.90,2,0,2,0.00
2013-9-26,65.0,62.9,62.1,57.6,55.8,55.3,79,78,77,29.93,29.90,1,0,1,0.00
2013-9-29,58.9,56.6,55.6,49.9,48.2,47.3,75,73,71,30.08,30.07,1,0,1,0.00
2013-9-30,75.1,60.8,50.6,59.0,50.6,43.9,81,70,51,30.12,30.02,5,0,5,0.00
2013-10-1,81.0,65.0,51.7,60.4,53.5,44.7,81,68,47,30.15,30.04,7,0,7,0.00
2013-10-2,83.3,68.6,56.9,63.1,56.3,49.9,80,66,41,30.16,30.07,5,0,5,0.01
2013-10-3,83.7,69.8,58.9,65.4,58.1,51.1,79,67,47,30.16,30.08,9,0,9,0.00
2013-10-4,86.2,83.6,79.7,65.9,63.4,61.0,61,51,46,30.15,30.08,5,1,5,0.00
2013-10-5,77.0,74.7,71.6,63.5,62.0,60.8,70,65,60,30.09,30.07,1,0,1,0.00
2013-10-6,83.9,73.1,63.5,67.4,62.2,55.4,78,69,55,30.10,29.96,2,0,2,0.00
2013-10-7,74.3,71.1,63.9,67.6,64.3,57.2,85,79,74,30.02,29.88,3,0,3,1.77
2013-10-8,63.7,59.1,54.5,57.4,49.8,47.6,80,71,67,30.22,30.01,8,1,8,0.02
2013-10-9,55.1,54.8,54.5,49.0,48.7,48.2,80,80,78,30.20,30.15,2,0,2,0.00
2013-10-11,66.2,64.4,63.0,59.2,58.2,56.9,81,80,78,30.00,29.94,1,0,1,0.00
2013-10-12,67.0,63.5,60.5,61.1,57.9,55.2,85,82,76,30.10,29.98,3,0,3,0.02
2013-10-13,66.4,63.8,61.9,60.3,58.5,56.9,86,83,80,30.22,30.10,4,0,4,0.01
2013-10-14,63.7,61.6,57.4,59.7,57.3,52.6,88,86,81,30.25,30.20,4,1,4,0.04
2013-10-15,71.1,61.8,53.3,59.1,54.7,48.6,86,78,64,30.22,30.07,4,0,4,0.00
2013-10-16,67.9,64.3,61.0,59.7,57.4,55.1,82,78,73,30.09,29.98,3,0,3,0.00
2013-10-17,73.1,65.8,59.9,62.8,58.5,54.5,83,77,66,29.99,29.87,7,0,7,0.00
2013-10-18,66.4,62.3,56.9,59.8,53.2,49.0,82,72,59,30.07,29.91,2,0,3,0.00
2013-10-19,69.1,62.4,58.7,60.3,55.3,52.2,81,78,71,30.01,29.84,7,0,7,0.01
2013-10-20,63.9,55.3,45.4,54.7,45.0,37.5,83,69,46,30.15,29.93,4,0,4,0.01
2013-10-21,65.7,51.6,38.5,50.7,42.1,32.6,82,71,52,30.18,30.02,4,0,4,0.00
2013-10-22,63.0,56.7,51.3,55.3,49.8,44.0,80,78,75,30.04,29.83,3,0,3,0.00
2013-10-23,65.9,58.3,46.4,53.7,44.0,29.4,83,62,32,30.03,29.71,11,1,11,0.00
2013-10-24,58.7,46.4,37.1,36.6,32.5,28.6,72,60,38,30.20,30.03,9,1,9,0.00
2013-10-25,55.3,45.5,37.3,35.3,31.2,26.4,76,59,34,30.38,30.19,8,1,8,0.00
2013-10-26,57.6,42.8,29.2,35.4,29.1,22.2,79,60,37,30.38,30.10,10,1,10,0.00
2013-10-27,67.1,52.8,39.8,44.6,38.1,32.2,77,59,39,30.15,30.06,8,1,8,0.00
2013-10-28,62.1,52.7,43.4,51.7,44.5,35.6,79,74,68,30.27,30.14,2,0,2,0.00
2013-10-29,70.9,57.8,49.1,55.9,48.9,42.8,82,73,58,30.36,30.26,4,0,4,0.00
2013-10-30,73.1,60.7,50.8,57.4,50.6,44.0,80,70,55,30.32,30.18,6,0,6,0.00
2013-10-31,74.0,64.0,56.2,58.3,53.3,49.0,79,69,52,30.22,29.94,11,1,11,0.00
2013-11-1,71.8,67.4,60.8,62.1,59.7,53.6,84,77,68,29.96,29.71,13,2,13,1.19
2013-11-2,69.8,61.0,52.2,54.3,48.5,40.1,85,65,39,29.96,29.73,8,1,8,0.00
2013-11-3,62.8,50.9,42.1,41.4,36.8,33.3,74,59,39,30.38,29.96,7,1,7,0.00
2013-11-4,55.3,44.5,37.8,37.1,32.2,29.3,74,63,43,30.56,30.38,6,1,6,0.00
2013-11-5,55.4,46.1,36.7,44.6,37.0,28.6,76,70,61,30.55,30.43,3,0,3,0.00
2013-11-6,70.0,56.2,44.8,53.5,46.3,38.1,80,70,53,30.44,30.13,2,0,4,0.00
2013-11-7,68.4,59.5,45.9,57.1,48.6,30.2,83,68,47,30.13,29.95,10,1,10,0.01
2013-11-8,57.1,44.8,33.5,31.3,27.8,24.3,71,53,29,30.34,30.12,9,1,9,0.00
2013-11-9,58.0,43.6,28.8,32.2,28.1,21.9,79,57,33,30.39,30.21,10,1,10,0.00
2013-11-10,72.0,54.0,37.4,40.1,32.7,26.0,73,47,25,30.26,30.08,10,2,10,0.00
2013-11-11,59.8,45.7,33.5,33.7,28.0,23.0,71,51,31,30.37,30.16,7,0,7,0.00
2013-11-12,60.5,41.5,32.4,36.9,29.8,23.9,79,65,38,30.45,30.07,8,1,10,0.01
2013-11-13,45.7,34.0,26.3,24.4,17.9,15.8,72,53,31,30.56,30.44,8,2,8,0.00
2013-11-14,57.6,42.9,25.2,25.7,21.4,16.4,70,45,25,30.50,30.36,9,1,9,0.00
2013-11-15,58.0,43.6,28.8,45.2,31.8,18.6,75,63,47,30.39,30.23,4,0,4,0.00
2013-11-16,68.0,56.6,47.2,54.6,47.5,40.2,80,72,61,30.29,30.22,4,0,4,0.00
2013-11-17,70.6,61.1,53.5,60.0,53.1,46.8,83,75,61,30.23,29.93,10,0,10,0.10
2013-11-18,75.2,65.8,54.4,62.2,50.4,28.6,83,60,33,29.99,29.82,10,3,11,0.04
2013-11-19,56.5,49.1,41.9,29.5,26.2,24.0,58,41,31,30.25,29.98,11,3,11,0.00
2013-11-21,60.8,55.0,49.7,44.4,41.7,39.2,69,61,53,30.47,30.40,4,1,4,0.00
2013-11-22,71.1,58.6,46.8,55.9,48.4,39.3,77,69,59,30.41,30.11,20,2,20,0.01
2013-11-23,61.7,55.3,41.4,54.7,40.2,18.3,83,59,34,30.20,30.06,9,2,9,0.02
2013-11-24,42.1,32.4,22.3,19.9,8.2,1.7,58,37,23,30.56,30.20,15,3,15,0.00
2013-11-25,42.7,29.7,17.6,17.6,10.8,7.2,68,47,24,30.61,30.39,8,1,8,0.00
2013-11-26,63.2,43.3,34.4,60.3,30.5,14.8,90,62,44,30.40,29.61,13,2,13,1.29
2013-11-27,47.0,38.8,26.6,42.4,32.0,16.4,88,77,55,30.20,29.53,20,4,20,0.45
2013-11-28,41.9,30.5,22.1,21.9,17.4,13.1,75,59,41,30.50,30.20,9,1,9,0.00
2013-11-29,50.2,34.2,21.4,29.9,21.8,15.8,80,62,38,30.64,30.48,6,1,6,0.00
2013-11-30,47.9,34.9,26.6,31.3,24.0,18.4,78,65,50,30.65,30.38,7,1,7,0.00
2013-12-1,58.0,40.7,26.6,37.3,29.4,21.0,81,66,40,30.38,30.04,9,1,9,0.00
2013-12-2,61.6,45.7,37.8,43.2,35.6,30.4,78,69,48,30.04,29.84,6,0,6,0.00
2013-12-3,53.6,44.2,31.7,44.5,36.5,25.7,83,74,66,30.02,29.89,4,0,5,0.00
2013-12-4,64.3,55.5,49.7,54.0,47.7,42.0,80,75,68,30.12,30.00,9,0,9,0.00
2013-12-5,67.3,60.9,54.0,59.9,55.0,48.3,85,81,75,30.15,30.06,11,2,11,0.03
2013-12-6,78.5,69.8,64.3,61.9,59.1,57.2,81,69,54,30.11,30.00,30,5,30,0.00
2013-12-7,68.4,50.4,42.1,60.1,42.3,31.7,82,74,65,30.46,30.02,14,3,14,0.14
2013-12-8,42.3,35.7,33.3,32.1,28.6,26.5,84,76,63,30.47,30.30,9,2,9,0.05
2013-12-9,45.0,39.2,33.5,40.5,34.7,28.5,86,84,82,30.30,30.08,8,1,8,0.18
2013-12-10,47.2,42.8,28.4,41.8,36.2,21.7,87,78,52,30.34,29.93,13,2,13,0.44
2013-12-11,46.4,33.7,22.9,27.3,22.8,17.0,83,66,39,30.48,30.30,14,1,14,0.00
2013-12-12,30.2,27.9,26.1,23.5,18.8,15.3,78,69,62,30.40,30.28,4,1,4,0.00
2013-12-13,50.6,34.0,21.2,27.9,19.4,12.8,77,57,32,30.41,30.28,17,1,17,0.00
2013-12-14,44.5,39.8,34.2,39.4,33.0,23.8,86,77,61,30.32,29.80,14,1,14,0.81
2013-12-15,53.1,42.1,33.1,39.8,32.1,23.8,87,69,42,30.10,29.72,15,3,15,0.04
2013-12-16,54.4,39.4,27.2,34.0,27.7,20.3,80,64,42,30.20,30.09,11,1,11,0.00
2013-12-17,59.8,44.8,29.7,36.6,30.8,23.3,80,60,39,30.14,29.91,18,3,18,0.00
2013-12-18,49.5,39.8,28.4,27.7,18.3,14.5,63,43,27,30.31,30.05,15,3,15,0.00
2013-12-19,60.7,42.0,24.7,27.7,22.2,16.2,76,48,24,30.35,30.24,26,2,26,0.00
2013-12-20,65.9,52.1,39.1,49.8,39.1,25.7,72,62,47,30.27,30.14,18,2,18,0.00
2013-12-21,73.1,59.0,44.5,61.3,49.7,37.0,80,72,56,30.18,30.07,23,2,23,0.00
2013-12-22,77.8,70.4,63.7,63.6,60.3,56.7,83,71,55,30.14,30.04,32,6,32,0.25
2013-12-23,66.1,59.9,45.2,62.2,54.6,34.5,88,83,63,30.18,30.01,18,3,18,1.96
2013-12-24,46.4,40.0,27.7,36.2,25.0,12.2,71,56,40,30.47,30.15,16,4,16,0.00
2013-12-25,38.2,28.4,22.3,20.2,12.4,9.3,70,52,33,30.56,30.41,8,1,8,0.00
2013-12-26,51.5,35.7,23.9,32.5,23.7,14.9,79,63,39,30.41,30.26,8,1,8,0.03
2013-12-27,50.2,34.3,22.5,25.5,20.4,15.5,80,59,33,30.48,30.37,5,0,5,0.00
2013-12-28,58.1,39.9,23.2,34.6,25.6,16.7,81,59,32,30.42,30.17,8,1,8,0.00
2013-12-29,56.5,47.5,41.4,53.3,41.2,31.8,91,79,57,30.17,29.73,19,3,19,1.77
2013-12-30,51.3,41.9,34.4,40.8,35.2,29.3,85,77,62,30.16,29.94,6,1,6,0.00
2013-12-31,49.7,40.4,30.6,34.6,27.1,20.1,77,61,32,30.37,30.13,18,2,18,0.00
2014-1-1,50.0,37.1,27.7,28.5,24.6,20.8,80,62,38,30.43,30.17,9,1,9,0.00
2014-1-2,47.0,41.1,33.1,40.3,33.8,25.0,84,75,69,30.17,29.61,20,1,20,0.30